Hourly Weather Allahabad

Today, 8 March, Monday

Time Temperature Precipitation Wind Pressure Humidity
00:00 +24°C° 0 mm 3 mps 749 mmHg 18%
01:00 +22°C° 0 mm 3 mps 749 mmHg 19%
02:00 +21°C° 0 mm 3 mps 748 mmHg 20%
03:00 +21°C° 0 mm 3 mps 749 mmHg 21%
04:00 +20°C° 0 mm 3 mps 749 mmHg 22%
05:00 +20°C° 0 mm 3 mps 749 mmHg 24%
06:00 +22°C° 0 mm 3 mps 750 mmHg 22%
07:00 +25°C° 0 mm 3 mps 751 mmHg 20%
08:00 +27°C° 0 mm 3 mps 751 mmHg 18%
09:00 +31°C° 0 mm 3 mps 751 mmHg 16%
10:00 +35°C° 0 mm 2 mps 751 mmHg 13%
11:00 +39°C° 0 mm 1 mps 751 mmHg 11%
12:00 +40°C° 0 mm 1 mps 750 mmHg 10%
13:00 +40°C° 0 mm 2 mps 749 mmHg 9%
14:00 +41°C° 0 mm 2 mps 748 mmHg 8%
15:00 +40°C° 0 mm 2 mps 747 mmHg 9%
16:00 +39°C° 0 mm 2 mps 747 mmHg 10%
17:00 +35°C° 0 mm 1 mps 748 mmHg 12%
18:00 +33°C° 0 mm 1 mps 748 mmHg 14%
19:00 +31°C° 0 mm 2 mps 749 mmHg 16%
20:00 +28°C° 0 mm 2 mps 749 mmHg 18%
21:00 +27°C° 0 mm 2 mps 749 mmHg 20%
22:00 +26°C° 0 mm 2 mps 749 mmHg 22%
23:00 +25°C° 0 mm 3 mps 749 mmHg 24%

Tomorrow, 9 March, Tuesday

Time Temperature Precipitation Wind Pressure Humidity
00:00 +24°C° 0 mm 2 mps 749 mmHg 26%
01:00 +23°C° 0 mm 2 mps 748 mmHg 28%
02:00 +23°C° 0 mm 2 mps 748 mmHg 30%
03:00 +21°C° 0 mm 2 mps 748 mmHg 31%
04:00 +21°C° 0 mm 1 mps 748 mmHg 31%
05:00 +21°C° 0 mm 1 mps 749 mmHg 32%
06:00 +23°C° 0 mm 1 mps 749 mmHg 28%
07:00 +25°C° 0 mm 1 mps 750 mmHg 25%
08:00 +28°C° 0 mm 1 mps 751 mmHg 21%
09:00 +31°C° 0 mm 1 mps 751 mmHg 18%
10:00 +34°C° 0 mm 1 mps 751 mmHg 15%
11:00 +37°C° 0 mm 1 mps 750 mmHg 12%
12:00 +39°C° 0 mm 2 mps 749 mmHg 11%
13:00 +40°C° 0 mm 2 mps 748 mmHg 11%
14:00 +41°C° 0 mm 2 mps 747 mmHg 10%
15:00 +40°C° 0 mm 2 mps 747 mmHg 10%
16:00 +39°C° 0 mm 2 mps 747 mmHg 11%
17:00 +38°C° 0 mm 2 mps 747 mmHg 12%
18:00 +35°C° 0 mm 2 mps 748 mmHg 15%
19:00 +32°C° 0 mm 2 mps 748 mmHg 17%
20:00 +29°C° 0 mm 3 mps 749 mmHg 20%
21:00 +28°C° 0 mm 2 mps 749 mmHg 21%
22:00 +27°C° 0 mm 2 mps 749 mmHg 22%
23:00 +26°C° 0 mm 2 mps 749 mmHg 23%

Day after tomorrow, 10 March, Wednesday

Time Temperature Precipitation Wind Pressure Humidity
00:00 +25°C° 0 mm 2 mps 749 mmHg 24%
01:00 +25°C° 0 mm 1 mps 748 mmHg 26%
02:00 +24°C° 0 mm 1 mps 748 mmHg 27%
03:00 +23°C° 0 mm 1 mps 748 mmHg 28%
04:00 +23°C° 0 mm 1 mps 748 mmHg 28%
05:00 +23°C° 0 mm 1 mps 748 mmHg 29%
06:00 +25°C° 0 mm 1 mps 749 mmHg 26%
07:00 +28°C° 0 mm 1 mps 750 mmHg 22%
08:00 +30°C° 0 mm 1 mps 751 mmHg 19%
09:00 +34°C° 0 mm 2 mps 750 mmHg 17%
10:00 +37°C° 0 mm 2 mps 750 mmHg 14%
11:00 +40°C° 0 mm 2 mps 750 mmHg 12%
12:00 +41°C° 0 mm 2 mps 749 mmHg 10%
13:00 +42°C° 0 mm 3 mps 748 mmHg 9%
14:00 +43°C° 0 mm 3 mps 747 mmHg 8%
15:00 +41°C° 0 mm 2 mps 746 mmHg 9%
16:00 +40°C° 0 mm 1 mps 746 mmHg 10%
17:00 +39°C° 0 mm 1 mps 746 mmHg 11%
18:00 +35°C° 0 mm 1 mps 746 mmHg 12%
19:00 +33°C° 0 mm 1 mps 747 mmHg 13%
20:00 +30°C° 0 mm 2 mps 747 mmHg 15%
21:00 +29°C° 0 mm 1 mps 747 mmHg 16%
22:00 +28°C° 0 mm 1 mps 748 mmHg 17%
23:00 +27°C° 0 mm 1 mps 748 mmHg 18%

11 March, Thursday

Time Temperature Precipitation Wind Pressure Humidity
00:00 +26°C° 0 mm 1 mps 748 mmHg 19%
01:00 +25°C° 0 mm 1 mps 747 mmHg 20%
02:00 +25°C° 0 mm 1 mps 747 mmHg 21%
03:00 +24°C° 0 mm 1 mps 747 mmHg 22%
04:00 +24°C° 0 mm 1 mps 748 mmHg 22%
05:00 +24°C° 0 mm 1 mps 748 mmHg 22%
06:00 +26°C° 0 mm 1 mps 749 mmHg 20%
07:00 +28°C° 0 mm 1 mps 749 mmHg 18%
08:00 +30°C° 0 mm 1 mps 750 mmHg 16%
09:00 +33°C° 0 mm 1 mps 750 mmHg 14%
10:00 +36°C° 0 mm 1 mps 750 mmHg 12%
11:00 +41°C° 0 mm 1 mps 750 mmHg 10%
12:00 +41°C° 0 mm 2 mps 749 mmHg 9%
13:00 +43°C° 0 mm 3 mps 748 mmHg 8%
14:00 +44°C° 0 mm 4 mps 747 mmHg 6%
15:00 +43°C° 0 mm 3 mps 747 mmHg 7%
16:00 +42°C° 0 mm 3 mps 747 mmHg 8%
17:00 +39°C° 0 mm 2 mps 747 mmHg 8%
18:00 +37°C° 0 mm 2 mps 747 mmHg 9%
19:00 +34°C° 0 mm 2 mps 748 mmHg 10%
20:00 +30°C° 0 mm 2 mps 748 mmHg 12%
21:00 +29°C° 0 mm 2 mps 749 mmHg 13%
22:00 +28°C° 0 mm 1 mps 749 mmHg 14%
23:00 +27°C° 0 mm 1 mps 749 mmHg 15%

12 March, Friday

Time Temperature Precipitation Wind Pressure Humidity
00:00 +26°C° 0 mm 1 mps 749 mmHg 15%
01:00 +26°C° 0 mm 2 mps 749 mmHg 16%
02:00 +25°C° 0 mm 2 mps 749 mmHg 17%
03:00 +25°C° 0 mm 2 mps 749 mmHg 18%
04:00 +25°C° 0 mm 2 mps 749 mmHg 19%
05:00 +24°C° 0 mm 2 mps 749 mmHg 20%
06:00 +26°C° 0 mm 2 mps 750 mmHg 18%
07:00 +29°C° 0 mm 2 mps 751 mmHg 16%
08:00 +31°C° 0 mm 1 mps 751 mmHg 14%
09:00 +35°C° 0 mm 2 mps 751 mmHg 12%
10:00 +38°C° 0 mm 2 mps 751 mmHg 10%
11:00 +41°C° 0 mm 2 mps 751 mmHg 8%
12:00 +42°C° 0 mm 2 mps 750 mmHg 8%
13:00 +43°C° 0 mm 1 mps 749 mmHg 7%
14:00 +43°C° 0 mm 1 mps 748 mmHg 7%
15:00 +43°C° 0 mm 3 mps 748 mmHg 9%
16:00 +41°C° 0 mm 6 mps 748 mmHg 11%
17:00 +39°C° 0 mm 8 mps 748 mmHg 14%
18:00 +36°C° 0 mm 5 mps 748 mmHg 15%
19:00 +34°C° 0 mm 3 mps 749 mmHg 17%
20:00 +31°C° 0 mm 1 mps 749 mmHg 19%
21:00 +30°C° 0 mm 1 mps 750 mmHg 19%
22:00 +29°C° 0 mm 2 mps 750 mmHg 20%
23:00 +28°C° 0 mm 2 mps 751 mmHg 21%

13 March, Saturday

Time Temperature Precipitation Wind Pressure Humidity
00:00 +28°C° 0 mm 3 mps 751 mmHg 23%
01:00 +27°C° 0 mm 4 mps 751 mmHg 25%
02:00 +26°C° 0 mm 5 mps 751 mmHg 28%
03:00 +26°C° 0.2 mm 5 mps 751 mmHg 33%
04:00 +25°C° 0.2 mm 4 mps 751 mmHg 39%
05:00 +24°C° 0.2 mm 3 mps 751 mmHg 44%
06:00 +26°C° 0 mm 3 mps 752 mmHg 39%
07:00 +28°C° 0 mm 2 mps 752 mmHg 34%
08:00 +30°C° 0 mm 1 mps 753 mmHg 29%
09:00 +32°C° 0 mm 2 mps 752 mmHg 25%
10:00 +36°C° 0 mm 2 mps 752 mmHg 20%
11:00 +39°C° 0 mm 3 mps 752 mmHg 15%
12:00 +41°C° 0 mm 4 mps 751 mmHg 13%
13:00 +42°C° 0 mm 5 mps 750 mmHg 11%
14:00 +44°C° 0 mm 7 mps 749 mmHg 9%
15:00 +42°C° 0 mm 6 mps 748 mmHg 10%
16:00 +41°C° 0 mm 6 mps 748 mmHg 10%
17:00 +40°C° 0 mm 5 mps 748 mmHg 11%
18:00 +36°C° 0 mm 4 mps 748 mmHg 13%
19:00 +33°C° 0 mm 4 mps 749 mmHg 15%
20:00 +30°C° 0 mm 3 mps 749 mmHg 17%
21:00 +29°C° 0 mm 3 mps 749 mmHg 18%
22:00 +28°C° 0 mm 2 mps 749 mmHg 19%
23:00 +27°C° 0 mm 2 mps 749 mmHg 20%
Show more